Total_Precipitation_Accumulation
1.68 1.93 2.50 3.21 3.61 4.13 4.61 4.58 4.39 4.43 4.50 4.53 4.31 4.44 4.62 4.91 5.19 5.13 5.05 4.93 4.83 4.77 4.87 4.90 4.86 4.70 4.61 4.49 4.39 4.38 4.28 4.01 3.86 3.87 3.52 3.03 2.59 2.38 2.28 2.30 2.39 2.39 2.35
1.89 2.22 2.76 3.13 3.51 3.85 4.11 4.42 4.57 4.59 4.35 4.69 4.99 5.26 5.59 5.61 5.87 6.14 6.17 5.98 5.69 5.51 5.37 5.37 5.04 4.73 4.60 4.46 4.33 4.26 4.12 3.77 3.66 3.72 3.73 3.21 2.73 2.20 1.90 1.99 1.98 2.04 2.21
2.16 2.57 2.94 3.08 3.30 3.65 4.00 4.34 4.69 4.81 4.73 5.17 5.67 6.15 6.52 6.43 6.45 6.42 6.40 6.31 5.90 5.59 5.38 5.15 4.95 4.75 4.58 4.42 4.39 4.30 4.17 3.85 3.65 3.61 3.84 3.60 3.09 2.49 2.12 1.91 1.92 2.03 2.17
1.98 2.33 2.68 3.13 3.12 3.37 3.78 4.11 4.54 4.96 5.26 5.64 6.07 6.60 6.97 7.19 7.00 6.63 6.34 5.98 5.54 5.20 4.84 4.66 4.69 4.58 4.38 4.19 3.90 3.79 3.80 3.74 3.56 3.47 3.34 3.24 3.10 2.87 2.53 2.22 2.18 2.22 2.21
1.90 2.11 2.27 2.63 2.91 3.13 3.48 3.92 4.28 4.68 5.30 6.06 6.61 7.10 7.46 7.49 6.95 6.33 5.73 5.29 4.91 4.57 4.32 4.23 4.35 4.25 4.00 3.83 3.57 3.38 3.23 3.23 3.28 3.28 3.19 3.04 2.90 2.68 2.53 2.35 2.23 2.21 2.15
1.98 2.13 2.25 2.55 2.77 2.87 3.13 3.63 4.19 4.53 5.07 5.83 6.43 6.78 6.97 6.93 6.50 5.84 5.27 4.84 4.38 4.00 3.68 3.46 3.41 3.33 3.17 3.08 3.05 3.01 2.97 2.96 3.01 3.03 2.97 2.87 2.78 2.68 2.64 2.48 2.23 2.19 2.22
2.18 2.16 2.15 2.25 2.52 2.66 2.94 3.40 3.87 4.34 4.69 5.14 5.65 5.70 5.78 5.58 5.21 4.99 4.66 4.15 3.72 3.34 2.97 2.76 2.67 2.64 2.60 2.56 2.60 2.67 2.70 2.66 2.73 2.69 2.67 2.63 2.50 2.46 2.58 2.66 2.49 2.32 2.17
2.02 2.06 2.01 2.21 2.52 2.78 3.02 3.26 3.55 3.92 4.27 4.41 4.52 4.38 4.26 4.20 4.07 3.87 3.51 3.15 2.87 2.67 2.54 2.43 2.28 2.24 2.27 2.27 2.41 2.41 2.32 2.30 2.35 2.29 2.36 2.36 2.31 2.35 2.45 2.56 2.73 2.70 2.42
1.86 1.93 2.03 2.25 2.45 2.74 2.91 3.09 3.22 3.35 3.39 3.38 3.42 3.39 3.31 3.19 3.16 3.08 2.79 2.52 2.36 2.17 2.14 2.10 2.03 1.94 1.90 1.90 1.93 1.91 1.92 1.99 1.97 1.95 1.97 1.96 2.04 2.17 2.24 2.35 2.60 2.84 2.72
1.91 1.93 2.07 2.26 2.18 2.22 2.42 2.66 2.76 2.86 2.83 2.72 2.65 2.74 2.69 2.54 2.40 2.29 2.21 2.07 1.95 1.86 1.83 1.77 1.72 1.74 1.75 1.69 1.61 1.57 1.58 1.66 1.73 1.78 1.74 1.70 1.73 1.86 1.89 1.98 2.17 2.46 2.68
2.01 1.95 2.06 2.12 1.96 1.81 1.82 2.00 2.15 2.36 2.42 2.32 2.25 2.28 2.24 2.16 2.02 1.94 1.90 1.88 1.77 1.71 1.64 1.61 1.59 1.50 1.46 1.47 1.50 1.46 1.47 1.58 1.61 1.58 1.58 1.60 1.68 1.76 1.72 1.78 1.90 2.07 2.32
2.05 1.93 1.94 1.98 1.91 1.77 1.67 1.75 1.89 1.91 1.93 1.93 2.02 2.09 1.99 1.93 1.86 1.82 1.83 1.81 1.67 1.61 1.57 1.56 1.49 1.32 1.25 1.34 1.41 1.38 1.35 1.47 1.48 1.44 1.51 1.52 1.58 1.67 1.70 1.79 1.88 1.98 2.18
2.24 2.13 1.98 1.92 1.90 1.76 1.70 1.74 1.79 1.74 1.67 1.66 1.68 1.75 1.75 1.70 1.68 1.53 1.51 1.53 1.50 1.49 1.43 1.36 1.34 1.28 1.18 1.20 1.22 1.23 1.22 1.27 1.33 1.34 1.41 1.47 1.56 1.57 1.62 1.70 1.77 1.88 1.97
2.20 2.05 2.00 1.93 1.80 1.71 1.70 1.73 1.66 1.52 1.52 1.54 1.65 1.64 1.64 1.67 1.69 1.62 1.52 1.45 1.38 1.34 1.33 1.24 1.18 1.18 1.12 1.01 0.96 1.01 1.09 1.18 1.19 1.18 1.29 1.37 1.45 1.47 1.56 1.59 1.68 1.77 1.96
2.16 2.05 1.96 1.85 1.67 1.53 1.50 1.45 1.42 1.35 1.35 1.38 1.50 1.58 1.53 1.48 1.52 1.58 1.46 1.29 1.21 1.13 1.13 1.08 1.03 1.05 0.98 0.84 0.87 0.92 0.95 1.07 1.11 1.11 1.17 1.22 1.26 1.27 1.30 1.28 1.45 1.64 1.83
2.26 2.15 2.03 1.90 1.68 1.53 1.46 1.39 1.30 1.20 1.23 1.27 1.42 1.49 1.47 1.40 1.38 1.44 1.40 1.34 1.26 1.20 1.16 1.12 1.06 0.99 0.85 0.82 0.77 0.79 0.87 0.97 1.08 1.17 1.17 1.08 1.06 1.02 0.96 1.00 1.12 1.34 1.60
2.21 2.16 2.09 1.95 1.72 1.60 1.54 1.58 1.41 1.24 1.30 1.34 1.32 1.36 1.40 1.44 1.42 1.38 1.39 1.39 1.41 1.38 1.28 1.16 1.09 1.02 0.91 0.81 0.67 0.66 0.73 0.93 1.08 1.18 1.17 0.97 0.89 1.00 1.00 1.03 1.04 1.12 1.25
2.35 2.31 2.14 1.95 1.72 1.53 1.46 1.45 1.41 1.31 1.36 1.33 1.24 1.24 1.24 1.26 1.26 1.30 1.35 1.36 1.38 1.36 1.29 1.18 1.11 1.05 0.84 0.72 0.63 0.66 0.70 0.84 0.89 0.92 1.01 1.09 1.09 1.01 1.04 1.05 1.15 1.22 1.31
2.23 2.17 1.99 1.86 1.77 1.59 1.49 1.41 1.36 1.38 1.31 1.22 1.13 1.07 1.03 1.08 1.09 1.15 1.27 1.38 1.39 1.29 1.18 1.10 1.06 1.01 0.85 0.76 0.72 0.73 0.76 0.83 0.78 0.76 0.83 0.89 0.93 0.92 0.98 1.08 1.28 1.35 1.45
1.71 1.67 1.58 1.54 1.55 1.45 1.42 1.42 1.40 1.37 1.29 1.18 1.06 0.97 0.96 1.04 1.07 1.12 1.24 1.33 1.37 1.23 1.05 0.98 0.99 0.93 0.88 0.77 0.65 0.63 0.65 0.77 0.79 0.82 0.88 0.82 0.73 0.78 0.89 1.10 1.37 1.54 1.59
1.51 1.42 1.36 1.41 1.41 1.30 1.32 1.36 1.33 1.24 1.10 1.03 1.00 0.97 1.00 1.08 1.08 1.19 1.28 1.24 1.15 1.12 1.03 0.99 0.98 0.87 0.73 0.64 0.54 0.53 0.57 0.69 0.77 0.81 0.89 0.89 0.74 0.67 0.74 0.96 1.20 1.39 1.45
1.59 1.48 1.42 1.36 1.30 1.27 1.34 1.38 1.32 1.11 0.98 0.95 0.98 1.02 1.01 0.95 0.95 1.14 1.23 1.17 1.13 1.10 1.06 1.03 0.98 0.85 0.70 0.60 0.53 0.46 0.44 0.49 0.67 0.85 0.88 0.88 0.82 0.75 0.82 0.96 1.13 1.25 1.45
1.57 1.52 1.42 1.34 1.27 1.23 1.27 1.29 1.15 0.92 0.86 0.95 1.07 1.10 1.01 1.06 1.05 1.06 1.12 1.17 1.18 1.07 0.99 0.98 0.92 0.84 0.76 0.65 0.52 0.45 0.42 0.46 0.57 0.76 0.84 0.82 0.77 0.86 1.06 1.19 1.29 1.44 1.67
1.39 1.32 1.25 1.20 1.12 1.03 1.00 0.99 0.88 0.81 0.88 1.00 1.09 1.09 1.08 1.16 1.16 1.07 0.94 0.91 0.93 0.90 0.86 0.85 0.80 0.80 0.80 0.67 0.56 0.55 0.51 0.53 0.60 0.73 0.89 0.94 0.94 1.08 1.26 1.39 1.48 1.60 1.70
1.27 1.20 1.12 1.02 0.90 0.84 0.79 0.75 0.73 0.75 0.87 0.94 0.99 1.02 1.02 1.06 1.12 1.02 0.87 0.81 0.74 0.67 0.64 0.62 0.58 0.64 0.65 0.53 0.50 0.48 0.52 0.59 0.65 0.74 0.91 1.05 1.09 1.19 1.33 1.45 1.51 1.56 1.57
1.12 1.12 1.01 0.90 0.82 0.77 0.74 0.69 0.66 0.69 0.81 0.87 0.84 0.79 0.83 0.86 0.88 0.88 0.82 0.63 0.47 0.40 0.35 0.36 0.38 0.38 0.39 0.37 0.36 0.38 0.45 0.53 0.65 0.80 1.06 1.14 1.13 1.16 1.23 1.34 1.45 1.45 1.44